Location: St. Louis
(38.6270°N, 90.1994°W)
Time: 07:19:21
(UTC-06:00)

Hubble Space Telescope - Visible Passes

Search period start: 13 December 2025 00:00
Search period end: 23 December 2025 00:00
Orbit: 480 x 483 km, 28.5° (Epoch: 12 December)

Date Brightness Start Highest point End Pass type
(mag) Time Alt. Az. Time Alt. Az. Time Alt. Az.
13 Dec 2.9 17:32:53 10° SW 17:35:26 17° S 17:37:58 10° SE visible
13 Dec 3.3 19:12:27 10° SW 19:13:32 13° SSW 19:13:32 13° SSW visible
14 Dec 2.9 18:43:13 10° SW 18:45:26 15° S 18:46:06 14° S visible
15 Dec 3.1 18:13:57 10° SW 18:16:10 15° S 18:18:23 10° SSE visible
16 Dec 3.2 17:44:42 10° SW 17:46:53 15° S 17:49:05 10° SSE visible
17 Dec 3.2 17:15:24 10° SW 17:17:35 15° S 17:19:46 10° SSE visible
